Stündliche Wetter Ceara

Heute, 26 Januar, Dienstag

Zeit Temperatur Niederschläge Wind Luftdruck Luftfeuchtigkeit
00:00 +26°C° 0 mm 2 m/S 739 mmHg 86%
01:00 +26°C° 0.2 mm 2 m/S 739 mmHg 87%
02:00 +26°C° 0.2 mm 2 m/S 739 mmHg 89%
03:00 +25°C° 0.2 mm 2 m/S 739 mmHg 90%
04:00 +25°C° 0.6 mm 2 m/S 739 mmHg 91%
05:00 +25°C° 0.6 mm 2 m/S 739 mmHg 91%
06:00 +25°C° 0.6 mm 2 m/S 740 mmHg 92%
07:00 +26°C° 0.1 mm 2 m/S 740 mmHg 83%
08:00 +28°C° 0.1 mm 3 m/S 740 mmHg 74%
09:00 +29°C° 0.1 mm 3 m/S 740 mmHg 65%
10:00 +31°C° 0 mm 3 m/S 740 mmHg 58%
11:00 +34°C° 0 mm 3 m/S 740 mmHg 50%
12:00 +36°C° 0 mm 3 m/S 739 mmHg 42%
13:00 +37°C° 0 mm 3 m/S 739 mmHg 39%
14:00 +37°C° 0 mm 3 m/S 738 mmHg 36%
15:00 +38°C° 0 mm 2 m/S 737 mmHg 33%
16:00 +36°C° 0 mm 2 m/S 737 mmHg 37%
17:00 +33°C° 0 mm 1 m/S 737 mmHg 41%
18:00 +32°C° 0 mm 1 m/S 737 mmHg 44%
19:00 +30°C° 0 mm 2 m/S 738 mmHg 50%
20:00 +29°C° 0 mm 2 m/S 738 mmHg 55%
21:00 +28°C° 0 mm 3 m/S 739 mmHg 61%
22:00 +28°C° 0 mm 3 m/S 739 mmHg 69%
23:00 +27°C° 0 mm 2 m/S 739 mmHg 76%

Morgen, 27 Januar, Mittwoch

Zeit Temperatur Niederschläge Wind Luftdruck Luftfeuchtigkeit
00:00 +26°C° 0 mm 2 m/S 739 mmHg 84%
01:00 +26°C° 0.1 mm 1 m/S 739 mmHg 85%
02:00 +26°C° 0.1 mm 1 m/S 739 mmHg 86%
03:00 +26°C° 0.1 mm 1 m/S 739 mmHg 87%
04:00 +25°C° 0.1 mm 1 m/S 739 mmHg 86%
05:00 +25°C° 0.1 mm 1 m/S 739 mmHg 86%
06:00 +25°C° 0.1 mm 1 m/S 739 mmHg 85%
07:00 +27°C° 0 mm 1 m/S 740 mmHg 76%
08:00 +29°C° 0 mm 2 m/S 740 mmHg 67%
09:00 +30°C° 0 mm 2 m/S 741 mmHg 58%
10:00 +32°C° 0 mm 2 m/S 740 mmHg 51%
11:00 +35°C° 0 mm 3 m/S 740 mmHg 45%
12:00 +37°C° 0 mm 3 m/S 739 mmHg 39%
13:00 +37°C° 0 mm 2 m/S 739 mmHg 37%
14:00 +38°C° 0 mm 2 m/S 738 mmHg 34%
15:00 +38°C° 0 mm 2 m/S 737 mmHg 32%
16:00 +36°C° 0 mm 2 m/S 737 mmHg 35%
17:00 +34°C° 0 mm 1 m/S 737 mmHg 38%
18:00 +32°C° 0 mm 1 m/S 737 mmHg 41%
19:00 +31°C° 0 mm 1 m/S 738 mmHg 48%
20:00 +29°C° 0 mm 2 m/S 738 mmHg 56%
21:00 +28°C° 0 mm 3 m/S 739 mmHg 63%
22:00 +28°C° 0 mm 2 m/S 739 mmHg 69%
23:00 +27°C° 0 mm 2 m/S 739 mmHg 75%

übermorgen, 28 Januar, Donnerstag

Zeit Temperatur Niederschläge Wind Luftdruck Luftfeuchtigkeit
00:00 +26°C° 0 mm 2 m/S 739 mmHg 80%
01:00 +26°C° 0.1 mm 1 m/S 739 mmHg 82%
02:00 +26°C° 0.1 mm 1 m/S 739 mmHg 84%
03:00 +26°C° 0.1 mm 1 m/S 739 mmHg 86%
04:00 +25°C° 0.1 mm 1 m/S 739 mmHg 87%
05:00 +25°C° 0.1 mm 1 m/S 739 mmHg 88%
06:00 +25°C° 0.1 mm 1 m/S 739 mmHg 89%
07:00 +27°C° 0 mm 1 m/S 739 mmHg 80%
08:00 +29°C° 0 mm 2 m/S 740 mmHg 71%
09:00 +30°C° 0 mm 2 m/S 740 mmHg 62%
10:00 +32°C° 0 mm 2 m/S 740 mmHg 55%
11:00 +34°C° 0 mm 3 m/S 739 mmHg 49%
12:00 +36°C° 0 mm 3 m/S 739 mmHg 42%
13:00 +36°C° 0 mm 3 m/S 738 mmHg 41%
14:00 +36°C° 0 mm 3 m/S 738 mmHg 39%
15:00 +36°C° 0 mm 2 m/S 737 mmHg 38%
16:00 +35°C° 0 mm 2 m/S 737 mmHg 41%
17:00 +34°C° 0 mm 2 m/S 737 mmHg 44%
18:00 +32°C° 0 mm 1 m/S 737 mmHg 47%
19:00 +31°C° 0 mm 2 m/S 738 mmHg 53%
20:00 +30°C° 0 mm 2 m/S 738 mmHg 58%
21:00 +29°C° 0 mm 2 m/S 739 mmHg 64%
22:00 +28°C° 0.1 mm 2 m/S 739 mmHg 68%
23:00 +27°C° 0.1 mm 2 m/S 739 mmHg 73%

29 Januar, Freitag

Zeit Temperatur Niederschläge Wind Luftdruck Luftfeuchtigkeit
00:00 +26°C° 0.1 mm 2 m/S 739 mmHg 78%
01:00 +26°C° 0 mm 2 m/S 739 mmHg 80%
02:00 +26°C° 0 mm 1 m/S 739 mmHg 81%
03:00 +26°C° 0 mm 1 m/S 738 mmHg 82%
04:00 +26°C° 0 mm 1 m/S 739 mmHg 82%
05:00 +26°C° 0 mm 1 m/S 739 mmHg 83%
06:00 +25°C° 0 mm 1 m/S 740 mmHg 83%
07:00 +27°C° 0 mm 2 m/S 740 mmHg 74%
08:00 +29°C° 0 mm 2 m/S 741 mmHg 66%
09:00 +30°C° 0 mm 3 m/S 741 mmHg 58%
10:00 +33°C° 0.3 mm 3 m/S 741 mmHg 54%
11:00 +34°C° 0.3 mm 3 m/S 740 mmHg 50%
12:00 +35°C° 0.3 mm 3 m/S 740 mmHg 47%
13:00 +35°C° 0.3 mm 3 m/S 739 mmHg 48%
14:00 +34°C° 0.3 mm 3 m/S 739 mmHg 49%
15:00 +34°C° 0.3 mm 2 m/S 738 mmHg 50%
16:00 +31°C° 0.8 mm 3 m/S 738 mmHg 60%
17:00 +29°C° 0.8 mm 3 m/S 738 mmHg 69%
18:00 +27°C° 0.8 mm 3 m/S 738 mmHg 78%
19:00 +27°C° 1.1 mm 3 m/S 739 mmHg 81%
20:00 +26°C° 1.1 mm 3 m/S 739 mmHg 84%
21:00 +26°C° 1.1 mm 2 m/S 740 mmHg 88%
22:00 +26°C° 0 mm 2 m/S 740 mmHg 88%
23:00 +25°C° 0 mm 1 m/S 740 mmHg 89%

30 Januar, Samstag

Zeit Temperatur Niederschläge Wind Luftdruck Luftfeuchtigkeit
00:00 +25°C° 0 mm 1 m/S 740 mmHg 90%
01:00 +23°C° 0.4 mm 0 m/S 740 mmHg 90%
02:00 +23°C° 0.4 mm 0 m/S 739 mmHg 91%
03:00 +23°C° 0.4 mm 0 m/S 739 mmHg 92%
04:00 +25°C° 0.2 mm 1 m/S 739 mmHg 93%
05:00 +25°C° 0.2 mm 1 m/S 740 mmHg 94%
06:00 +24°C° 0.2 mm 1 m/S 740 mmHg 95%
07:00 +26°C° 0.1 mm 2 m/S 740 mmHg 87%
08:00 +28°C° 0.1 mm 3 m/S 741 mmHg 79%
09:00 +29°C° 0.1 mm 3 m/S 741 mmHg 72%
10:00 +30°C° 0.1 mm 4 m/S 741 mmHg 65%
11:00 +33°C° 0.1 mm 4 m/S 741 mmHg 58%
12:00 +34°C° 0.1 mm 4 m/S 740 mmHg 51%
13:00 +34°C° 0.3 mm 4 m/S 740 mmHg 52%
14:00 +34°C° 0.3 mm 3 m/S 739 mmHg 52%
15:00 +34°C° 0.3 mm 3 m/S 739 mmHg 52%
16:00 +33°C° 0.2 mm 3 m/S 739 mmHg 57%
17:00 +30°C° 0.2 mm 2 m/S 739 mmHg 63%
18:00 +29°C° 0.2 mm 2 m/S 739 mmHg 68%
19:00 +28°C° 0.4 mm 2 m/S 739 mmHg 75%
20:00 +27°C° 0.4 mm 2 m/S 740 mmHg 81%
21:00 +25°C° 0.4 mm 2 m/S 740 mmHg 88%
22:00 +25°C° 0.2 mm 1 m/S 740 mmHg 89%
23:00 +25°C° 0.2 mm 1 m/S 740 mmHg 91%

31 Januar, Sonntag

Zeit Temperatur Niederschläge Wind Luftdruck Luftfeuchtigkeit
00:00 +25°C° 0.2 mm 1 m/S 740 mmHg 92%
01:00 +25°C° 0 mm 1 m/S 740 mmHg 92%
02:00 +25°C° 0 mm 1 m/S 739 mmHg 93%
03:00 +24°C° 0 mm 1 m/S 739 mmHg 94%
04:00 +24°C° 0 mm 1 m/S 739 mmHg 94%
05:00 +24°C° 0 mm 1 m/S 740 mmHg 95%
06:00 +24°C° 0 mm 1 m/S 740 mmHg 95%
07:00 +26°C° 0 mm 2 m/S 740 mmHg 86%
08:00 +27°C° 0 mm 2 m/S 741 mmHg 78%
09:00 +29°C° 0 mm 3 m/S 741 mmHg 69%
10:00 +30°C° 0 mm 3 m/S 741 mmHg 62%
11:00 +33°C° 0 mm 3 m/S 740 mmHg 55%
12:00 +34°C° 0 mm 4 m/S 740 mmHg 48%
13:00 +35°C° 0 mm 4 m/S 739 mmHg 47%
14:00 +35°C° 0 mm 4 m/S 739 mmHg 45%
15:00 +35°C° 0 mm 4 m/S 738 mmHg 44%
16:00 +34°C° 0 mm 3 m/S 738 mmHg 49%
17:00 +31°C° 0 mm 2 m/S 738 mmHg 53%
18:00 +30°C° 0 mm 1 m/S 738 mmHg 58%
19:00 +29°C° 0 mm 2 m/S 739 mmHg 61%
20:00 +28°C° 0 mm 2 m/S 739 mmHg 64%
21:00 +27°C° 0 mm 2 m/S 739 mmHg 68%
22:00 +27°C° 0.3 mm 2 m/S 739 mmHg 74%
23:00 +26°C° 0.3 mm 1 m/S 739 mmHg 80%
Mehr zeigen

Wir brauchen deine Erlaubnis

Meteoprog und unser Service Anbieter werden persönliche Daten aufbewahren, so wie Cookies, Geräte Bezeichnung oder ähnliche Technologien von deinem Gerät und Prozess, so wie Persönliche Daten Inhalte und Werbungen, genauso wie social Media und den Verkehr zu analysieren.

  • Aufbewahrung und/oder Zugang zu deiner Geräte Informationen.

    Cookies, Geräte Bezeichnung oder andere Informationen, können aufbewahrt oder Zugang zu deinem Gerät erhalten, für den Grund, der oben angegeben wird.

  • Personalisierte Werbung und Inhalte, Messungen, Einblick in das Publikum und Produkt Entwicklung.

    Werbungen und Inhalte können personalisiert werden, basierend auf ein Profil. Mehr Daten können besser personalisierte Werbungen und Inhalte hinzufügen. Werbung und Inhalte können gezeigt und gemessen werden. Einblicke über das Publikum, welche die Werbung gesehen haben und den Inhalt, können abgeleitet werden. So wie Daten können genutzt werden, um es zu verbessern oder die Benutzer Erfahrung zu verbessern das System und die Software.

Wenn du “Ich stimme zu” klickst, erlaubst du uns, die Cookies zu benutzen die Geräte Bezeichnung, den Web oder ähnliche Technologien zu benutzen. Deine Settings, können in deinem Gerät bei deinem Browser geändert werden.

Für den bestimmten Zweck, berechtigten Interessen beruhen darauf, mehr als auf den Inhalt. Du kannst mehr darüber in unseren Privaten und Cookie Politik lesen.